Lid_Strength_Index
-1 -1 -1 -1 -1 -1 0 0 -1 -1 -1 -1 -1 -1 -1 -1 -1 -1 -1 -1 -1 -1 -0 1 1 2 4 8 8 5 -1 -2 2 4 5 6 7 7 8 7 7 8 9 8 8 8 8
-1 -1 -1 -1 -1 -1 0 1 -0 -1 -1 -1 -1 -0 -1 -1 -1 -1 -1 -1 -1 -1 0 1 1 2 5 11 5 3 2 4 4 5 6 6 6 6 8 8 8 8 8 8 8 8 8
-1 -1 -1 -1 -1 -1 0 0 -1 -1 -1 -1 -1 -0 -1 -1 -1 -1 -1 -1 -1 -1 0 1 1 3 6 8 4 3 3 4 4 5 6 6 6 6 7 8 8 8 9 9 8 8 9
-1 -1 -1 -1 -1 -1 -0 0 -1 -1 -1 -1 -0 -0 -0 -1 -1 -1 -1 -1 -1 -1 -0 -0 -0 3 7 3 3 4 4 4 4 5 5 5 6 7 7 8 9 10 9 10 10 9 9
-0 -0 -1 -1 -1 -1 0 1 -1 -1 -1 -0 -0 0 -1 -1 -1 -1 -1 -1 -1 -1 -0 -1 2 5 7 2 5 3 3 5 5 5 5 6 6 8 8 9 10 11 12 12 12 9 9
0 -0 -0 -0 -0 -1 1 1 1 -0 -0 -0 0 0 -1 -1 -1 -1 -1 -1 -1 -1 1 1 4 7 6 5 5 4 4 4 5 5 6 6 7 10 10 10 13 13 13 13 12 10 10
0 0 0 1 0 -0 1 2 2 1 -0 0 0 0 -1 -1 -1 -1 -0 1 5 7 5 8 7 8 6 4 4 5 4 5 6 6 9 9 9 11 10 9 11 10 12 12 12 11 11
1 1 1 1 1 2 1 2 3 1 -0 -0 0 0 -1 -1 -1 -1 0 6 6 6 10 8 7 5 4 4 7 6 5 6 7 10 9 10 11 9 10 11 12 12 12 12 11 11 11
1 1 1 1 1 1 2 2 3 3 -0 0 0 0 -1 -1 -1 0 2 5 2 4 9 8 7 5 5 5 7 7 6 7 8 10 10 11 11 10 11 12 12 12 12 12 12 12 11
1 1 1 1 3 3 2 3 3 3 2 0 1 0 -0 -1 2 1 3 0 1 3 12 11 10 6 5 5 8 5 6 7 9 10 10 10 11 11 11 12 11 13 11 11 12 12 13
-1 0 1 2 4 4 3 3 3 4 3 2 1 1 0 -0 2 4 2 -0 1 5 18 10 10 5 5 7 7 7 5 7 10 11 10 12 12 12 12 11 10 12 11 11 12 12 12
-1 -1 -0 2 4 4 3 3 3 3 3 4 3 2 0 1 1 1 -0 0 2 12 17 12 10 10 9 8 8 7 7 7 8 10 9 11 10 10 11 11 10 10 11 11 11 12 15
-1 -1 -0 1 4 5 5 4 4 3 3 4 4 3 1 0 4 0 -0 3 12 16 11 13 13 10 10 10 9 8 9 10 11 13 13 11 11 10 10 11 10 11 11 15 16 16 16
-1 -1 -1 0 2 5 5 5 4 4 3 4 4 4 3 2 2 1 2 8 16 12 13 11 11 10 12 10 10 10 10 11 10 11 12 13 15 11 10 10 11 11 12 14 18 18 16
-0 -0 -1 -0 1 4 5 5 5 4 4 4 5 6 5 3 2 1 6 14 13 12 10 12 11 13 13 11 11 10 10 10 9 10 12 13 14 11 11 10 10 12 13 12 16 20 16
1 0 -0 -0 -0 1 4 5 5 5 4 5 7 7 6 4 2 3 9 11 10 9 9 10 14 12 14 13 12 11 11 9 10 9 9 11 14 12 11 10 10 11 11 14 14 17 18
1 1 1 0 -0 -0 2 4 5 5 4 5 8 10 7 5 3 7 13 10 9 7 8 10 12 13 13 14 12 13 12 11 9 10 10 10 10 13 11 12 12 13 13 13 12 14 16
1 1 1 1 0 0 1 3 4 5 4 6 9 12 7 5 9 10 11 9 8 8 7 8 9 11 12 13 13 13 13 11 9 10 12 10 12 14 13 11 11 11 12 11 13 16 15
1 1 1 1 1 0 0 2 4 5 5 7 11 11 6 6 13 13 11 9 8 9 9 9 10 9 10 12 14 12 12 10 10 10 12 11 12 16 15 12 12 12 12 12 13 13 16
1 1 1 1 1 1 0 1 2 5 4 7 11 13 11 10 12 12 12 11 11 8 8 8 9 8 10 12 10 13 12 10 10 10 9 10 13 13 15 13 11 14 13 13 13 15 15
2 2 2 1 1 1 1 0 1 2 4 7 11 13 12 13 12 12 10 11 11 11 8 8 10 10 10 12 12 12 10 10 10 10 10 11 14 14 13 13 12 12 13 14 14 12 15
2 2 2 2 2 1 1 0 0 0 3 8 12 13 12 13 12 12 11 12 11 10 10 11 11 10 10 11 10 12 11 10 10 9 10 10 14 13 15 13 13 14 12 13 13 13 13
2 2 2 2 2 2 1 1 0 -1 3 8 10 10 11 13 14 12 12 11 11 10 9 8 9 10 11 10 8 8 7 7 8 10 10 11 12 14 15 13 13 15 14 13 12 11 11
2 2 2 2 2 2 1 1 1 -0 1 5 8 9 12 15 14 13 12 10 10 10 12 9 8 9 9 7 7 7 8 8 8 8 8 11 12 13 16 14 18 13 10 10 11 11 10
2 2 2 2 2 2 2 1 1 0 -0 3 6 9 12 16 13 14 13 12 11 10 12 10 10 11 8 9 13 13 13 13 13 12 9 9 10 15 17 17 13 12 13 12 12 12 10
2 2 2 2 2 2 2 2 1 1 0 3 5 6 9 12 14 12 13 12 13 13 13 13 12 11 10 11 13 16 17 15 15 14 12 10 10 12 15 18 19 12 12 9 9 13 9
3 2 2 2 2 2 2 2 2 1 1 2 4 4 7 11 11 11 13 13 12 12 13 13 13 13 12 12 14 15 15 16 16 16 15 14 14 15 16 17 15 12 13 11 15 13 11
3 3 2 2 2 2 2 2 2 2 1 2 4 3 6 9 9 10 10 12 13 12 13 13 12 13 14 13 14 15 16 16 15 14 14 14 15 16 15 17 18 13 13 12 11 13 12
3 2 2 2 2 2 2 2 2 2 1 2 6 2 3 7 8 7 8 9 9 10 12 14 13 13 11 13 14 16 17 18 17 16 16 15 12 14 13 13 14 13 13 12 12 12 12